This is the latest recevied weather packets stored in our database for station/object NN5DX-12. If no packets are shown the sender has not sent any weather packets the latest 10 day(s).
| Time | Temp. | Humidity | Pressure | Rain* | Wind** | Luminosity | Snow |
|---|---|---|---|---|---|---|---|
| 1778198116 | 12.22° C | 38% | 1020.3 hPa | 0 mm | - | - | - |
| 1778197816 | 12.22° C | 36% | 1020.3 hPa | 0 mm | - | - | - |
| 1778197516 | 12.22° C | 36% | 1020.7 hPa | 0 mm | - | - | - |
| 1778197216 | 12.78° C | 35% | 1020.8 hPa | 0 mm | - | - | - |
| 1778196916 | 12.78° C | 36% | 1021.5 hPa | 0 mm | - | - | - |
| 1778196616 | 13.33° C | 34% | 1021.4 hPa | 0 mm | - | - | - |
| 1778196316 | 13.89° C | 33% | 1022.2 hPa | 0 mm | - | - | - |
| 1778196016 | 13.89° C | 33% | 1022.2 hPa | 0 mm | - | - | - |
| 1778195716 | 13.33° C | 33% | 1022.3 hPa | 0 mm | - | - | - |
| 1778195416 | 13.33° C | 32% | 1022.2 hPa | 0 mm | - | - | - |
| 1778195116 | 13.33° C | 35% | 1022.3 hPa | 0 mm | - | - | - |
| 1778194816 | 12.78° C | 34% | 1021.8 hPa | 0 mm | - | - | - |
| 1778194516 | 12.78° C | 33% | 1021.8 hPa | 0 mm | - | - | - |
| 1778194216 | 12.22° C | 36% | 1021.9 hPa | 0 mm | - | - | - |
| 1778193916 | 12.22° C | 36% | 1020.2 hPa | 0 mm | - | - | - |
| 1778193616 | 12.22° C | 35% | 1020.2 hPa | 0 mm | - | - | - |
| 1778193316 | 12.22° C | 37% | 1020.2 hPa | 0 mm | - | - | - |
| 1778193016 | 12.22° C | 35% | 1020.3 hPa | 0 mm | - | - | - |
| 1778192716 | 12.22° C | 36% | 1020.5 hPa | 0 mm | - | - | - |
| 1778192416 | 11.67° C | 36% | 1019.9 hPa | 0 mm | - | - | - |
| 1778192116 | 11.67° C | 35% | 1019.9 hPa | 0 mm | - | - | - |
| 1778191816 | 11.11° C | 37% | 1020.1 hPa | 0 mm | - | - | - |
| 1778191516 | 11.11° C | 37% | 1020.3 hPa | 0 mm | - | - | - |
| 1778191216 | 11.11° C | 36% | 1020.6 hPa | 0 mm | - | - | - |
| 1778190916 | 11.67° C | 38% | 1020.7 hPa | 0 mm | - | - | - |
* Rain latest hour (hover to see other rain measurements)
** Current wind speed in m/s (hover to see current wind gust speed)